Weather History for Mexico City Airport, Mexico

Change the Weather History Date:

Wednesday, December 14, 2011

  Actual Average Record
Temperature  
Mean Temperature 58 °F -  
Max Temperature 75 °F 68 °F 77 °F (2005)
Min Temperature 41 °F 40 °F 32 °F (1997)
Degree Days  
Heating Degree Days 7    
Growing Degree Days 8 (Base 50)    
Moisture  
Dew Point 36 °F    
Average Humidity 49    
Maximum Humidity 87    
Minimum Humidity 17    
Precipitation  
Precipitation 0.00 in - - ()
Sea Level Pressure  
Sea Level Pressure 30.25 in    
Wind  
Wind Speed 3 mph ()    
Max Wind Speed 10 mph    
Max Gust Speed -    
Visibility 8.5 miles    
Events      
Averages and records for this station are not official NWS values.
T = Trace of Precipitation, MM = Missing Value Source: Averaged Metar Reports

Daily Weather History Graph

Daily Weather History Graph

Search for Another Location

Airport:

Trip Planner

Search our weather history database for the weather conditions in past years. The results will help you decide how hot, cold, wet, or windy it might be!

Date:

Astronomy

Dec. 14, 2011 Rise Set
Actual Time 7:01 AM CST 6:00 PM CST
Civil Twilight 6:37 AM CST 6:24 PM CST
Nautical Twilight 6:10 AM CST 6:51 PM CST
Astronomical Twilight 5:43 AM CST 7:18 PM CST
Moon 9:57 PM CST (12/14) 10:08 AM CST (12/14)
Length of Visible Light 11h 46m
Length of Day
10h 58m
Waning Gibbous, 83% of the Moon is Illuminated
Dec 14
Waning Gibbous
Dec 17
Last Quarter
Dec 24
New
Jan 1
First Quarter
Jan 9
Full

Hourly Weather History & Observations

Time (CST) Temp. Windchill Dew Point Humidity Pressure Visibility Wind Dir Wind Speed Gust Speed Precip Events Conditions
12:43 AM 53.6 °F - 39.2 °F 58% 30.38 in 12.0 mi Calm Calm - N/A   Clear
12:45 AM 53.6 °F - 37.4 °F 54% 30.38 in 12.0 mi Calm Calm - N/A   Clear
1:45 AM 51.8 °F - 39.2 °F 62% 30.38 in 12.0 mi Calm Calm - N/A   Clear
2:53 AM 48.2 °F - 41.0 °F 76% 29.89 in 12.0 mi Calm Calm - N/A   Clear
3:43 AM 48.2 °F - 41.0 °F 76% 30.35 in 10.0 mi Calm Calm - N/A   Clear
3:46 AM 48.2 °F - 41.0 °F 76% 30.35 in 10.0 mi Calm Calm - N/A   Clear
4:45 AM 44.6 °F 41.4 °F 35.6 °F 71% 30.35 in 10.0 mi ENE 5.8 mph - N/A   Clear
4:47 AM 42.8 °F 39.3 °F 35.6 °F 76% 30.35 in 10.0 mi ENE 5.8 mph - N/A   Clear
5:47 AM 42.8 °F - 37.4 °F 81% 29.97 in 10.0 mi Calm Calm - N/A   Clear
6:20 AM 42.8 °F 39.3 °F 37.4 °F 81% 30.35 in 10.0 mi East 5.8 mph - N/A   Clear
6:45 AM 41.0 °F 39.0 °F 37.4 °F 87% 30.36 in 10.0 mi East 3.5 mph - N/A   Clear
7:20 AM 42.8 °F 40.1 °F 37.4 °F 81% 30.36 in 10.0 mi East 4.6 mph - N/A   Clear
7:43 AM 44.6 °F 43.1 °F 37.4 °F 76% 30.37 in 10.0 mi East 3.5 mph - N/A   Clear
8:17 AM 50.0 °F - 39.2 °F 66% 30.39 in 8.0 mi East 4.6 mph - N/A   Clear
8:20 AM 50.0 °F - 39.2 °F 66% 30.39 in 8.0 mi East 4.6 mph - N/A   Clear
8:42 AM 51.8 °F - 41.0 °F 67% 29.98 in 6.0 mi ENE 6.9 mph - N/A   Clear
9:11 AM 55.4 °F - 41.0 °F 58% 30.41 in 6.0 mi East 5.8 mph - N/A   Clear
9:20 AM 55.4 °F - 41.0 °F 58% 30.41 in 6.0 mi East 4.6 mph - N/A   Clear
9:43 AM 57.2 °F - 41.0 °F 55% 30.41 in 5.0 mi ENE 4.6 mph - N/A   Clear
10:07 AM 60.8 °F - 41.0 °F 48% 30.40 in 5.0 mi Calm Calm - N/A   Clear
10:39 AM 64.4 °F - 41.0 °F 42% 30.39 in 5.0 mi Calm Calm - N/A   Clear
10:42 AM 64.4 °F - 37.4 °F 37% 30.39 in 5.0 mi Calm Calm - N/A   Clear
11:43 AM 66.2 °F - 37.4 °F 35% 29.92 in 5.0 mi ENE 5.8 mph - N/A   Clear
12:22 PM 69.8 °F - 37.4 °F 31% 30.36 in 5.0 mi East 6.9 mph - N/A   Clear
12:43 PM 71.6 °F - 35.6 °F 27% 30.33 in 5.0 mi NE 8.1 mph - N/A   Clear
1:43 PM 73.4 °F - 30.2 °F 20% 30.28 in 6.0 mi ENE 8.1 mph - N/A   Clear
2:50 PM 73.4 °F - 26.6 °F 18% 29.79 in 6.0 mi NNE 4.6 mph - N/A   Clear
3:41 PM 75.2 °F - 26.6 °F 17% 30.24 in 6.0 mi North 4.6 mph - N/A   Clear
4:41 PM 75.2 °F - 26.6 °F 17% 30.24 in 6.0 mi East 4.6 mph - N/A   Clear
5:51 PM 71.6 °F - 26.6 °F 19% 30.25 in 10.0 mi East 5.8 mph - N/A   Clear
5:53 PM 71.6 °F - 26.6 °F 19% 29.86 in 10.0 mi East 5.8 mph - N/A   Clear
6:41 PM 68.0 °F - 33.8 °F 28% 30.26 in 10.0 mi SE 9.2 mph - N/A   Clear
6:43 PM 68.0 °F - 33.8 °F 28% 30.26 in 10.0 mi SE 9.2 mph - N/A   Clear
7:47 PM 64.4 °F - 32.0 °F 30% 30.29 in 10.0 mi SSE 10.4 mph - N/A   Clear
7:49 PM 64.4 °F - 32.0 °F 30% 30.29 in 10.0 mi SSE 10.4 mph - N/A   Clear
8:50 PM 60.8 °F - 33.8 °F 36% 30.32 in 10.0 mi East 4.6 mph - N/A   Clear
8:52 PM 60.8 °F - 33.8 °F 36% 29.91 in 10.0 mi East 4.6 mph - N/A   Clear
9:46 PM 59.0 °F - 33.8 °F 39% 30.34 in 10.0 mi East 5.8 mph - N/A   Clear
10:45 PM 59.0 °F - 32.0 °F 36% 30.34 in 10.0 mi Calm Calm - N/A   Clear
11:45 PM 57.2 °F - 33.8 °F 41% 29.87 in 10.0 mi Calm Calm - N/A   Clear